Regional Weather Roundup
Issued by NWS Bismarck, ND

Home | Current Version | Previous Version | Text Only | Print | Product List | Glossary On
Versions: 1 2 3 4 5 6 7 8 9 10 11 12 13 14 15 16 17 18 19 20 21 22 23 24 25 26 27 28 29 30 31 32 33 34 35 36 37 38 39 40 41 42 43 44 45 46 47 48 49 50
000
ASUS43 KBIS 251059
RWRBIS

NWR BROADCAST TEXT
NATIONAL WEATHER SERVICE BISMARCK ND
600 AM CDT FRI JUL 25 2014

NOTE: "FAIR" INDICATES FEW OR NO CLOUDS BELOW 12,000 FEET WITH NO
SIGNIFICANT WEATHER AND/OR OBSTRUCTIONS TO VISIBILITY.


CITY           SKY/WX    TMP DP  RH WIND       PRES   REMARKS
WILLISTON      CLEAR     54  50  86 S7        29.87R
MINOT          MOCLDY    63  54  72 W10       29.78R
MINOT AFB      NOT AVBL
BISMARCK       CLOUDY    67  64  90 W5        29.80R
DICKINSON      CLEAR     51  47  86 W6        29.88R
GARRISON         N/A     65  59  81 NW15      29.81R
HETTINGER ARPT CLEAR     53  46  77 W5        29.90R
JAMESTOWN      NOT AVBL
CARRINGTON     FAIR      61  61 100 S8        29.75F
CROSBY           N/A     54  54 100 SW9       29.83S
HARVEY         FAIR      63  63 100 S10       29.71R
HAZEN          PTSUNNY   64  59  82 NW10      29.83R
LINTON         FAIR      63  63 100 NW6       29.77S
MANDAN         PTSUNNY   64  64 100 W6        29.81R
RUGBY          CLOUDY    66  66 100 W8        29.76R
TIOGA          FAIR      50  50 100 W7        29.88R
WATFORD CITY   FAIR      50  50 100 SW6       29.86S
$$

CITY           SKY/WX    TMP DP  RH WIND       PRES   REMARKS
GRAND FORKS    MOCLDY    65  62  90 SE8       29.69F
GRAND FORKS AF NOT AVBL
DEVILS LAKE    MOCLDY    66  59  77 S16       29.69R
FARGO          MOCLDY    65  61  87 E6        29.74R
CAVALIER       FAIR      66  63  88 S3        29.69R
GWINNER        CLOUDY    64  64 100 NE8       29.74R
LANGDON        PTSUNNY   64  63  94 NW8       29.74R
$$

CITY           SKY/WX    TMP DP  RH WIND       PRES   REMARKS
ABERDEEN       PTCLDY    64  64 100 SW3       29.69R
MOBRIDGE       PTCLDY    65  64  97 NW6       29.76R
BUFFALO          N/A     54  46  74 SW5       29.88R
RAPID CITY     CLEAR     64  37  36 NW20      29.93R
GLASGOW        CLEAR     53  38  56 S3        29.89R
SIDNEY         CLEAR     50  46  87 CALM      29.91R
WOLF POINT     CLEAR     49  47  93 SW6       29.90R
GLENDIVE       CLEAR     52  46  82 W7        29.94S
MILES CITY     CLEAR     54  50  86 CALM      29.95S
BAKER          CLEAR     52  47  83 NW5       29.96R
$$

CITY           SKY/WX    TMP DP  RH WIND       PRES   REMARKS
BILLINGS       CLEAR     60  31  33 N3        30.00S
GREAT FALLS    CLEAR     55  36  48 SW28      29.93F
$$




USA.gov is the U.S. government's official web portal to all federal, state and local government web resources and services.